Regional Weather Roundup
Issued by NWS Sioux Falls, SD

Home | Current Version | Previous Version | Text Only | Print | Product List | Glossary On
Versions: 1 2 3 4 5 6 7 8 9 10 11 12 13 14 15 16 17 18 19 20 21 22 23 24 25 26 27 28 29 30 31 32 33 34 35 36 37 38 39 40 41 42 43 44 45 46 47 48 49 50
000
ASUS43 KFSD 070110
RWRFSD

WEATHER ROUNDUP FOR SE SOUTH DAKOTA/SW MINNESOTA/NW IOWA
NATIONAL WEATHER SERVICE SIOUX FALLS SD
700 PM CST FRI MAR 06 2015

NOTE: "FAIR" INDICATES FEW OR NO CLOUDS BELOW 12,000 FEET WITH NO
SIGNIFICANT WEATHER AND OR OBSTRUCTIONS TO VISIBILITY.


SDZ038>040-050-052>070-070200-
SOUTHEAST SOUTH DAKOTA

CITY           SKY/WX    TMP DP  RH WIND       PRES   REMARKS
CHAMBERLAIN    CLEAR     38  21  49 SW5       30.04S
HURON          MOCLDY    36  24  62 SE6       30.05F
MADISON        MOCLDY    34  25  69 CALM      30.07S
MITCHELL       CLEAR     40  20  44 E7        30.08R
SIOUX FALLS    PTCLDY    35  22  58 CALM      30.08S
WINNER         FAIR      45  20  36 SW9       30.06S
YANKTON        CLOUDY    46  19  34 E3        30.09S
$$

MNZ071-072-080-081-089-090-097-098-070200-
SOUTHWEST MINNESOTA

CITY           SKY/WX    TMP DP  RH WIND       PRES   REMARKS
FAIRMONT       PTCLDY    34  21  60 NW3       30.09R
JACKSON        CLEAR     34  27  75 CALM      30.09S
LUVERNE        CLEAR     34  28  80 CALM      30.09S
MARSHALL       PTCLDY    32  21  64 CALM      30.10S
MONTEVIDEO     PTCLDY    30  19  64 CALM      30.09S
REDWOOD FALLS  CLEAR     31  20  63 W5        30.09S WCI  26
TRACY          CLEAR     32  25  74 CALM      30.09R
WINDOM         CLEAR     32  25  74 CALM      30.09S
WORTHINGTON    CLEAR     34  25  69 W5        30.10S WCI  30
$$

IAZ001>003-012>014-020>022-031-032-NEZ013-014-SDZ071-070200-
NORTHWEST IOWA

CITY           SKY/WX    TMP DP  RH WIND       PRES   REMARKS
CHEROKEE       PTCLDY    38  27  64 CALM      30.10S
DENISON        PTCLDY    45  25  45 CALM      30.09R
ESTHERVILLE    CLEAR     33  27  78 W8        30.09R WCI  26
LE MARS        PTCLDY    41  23  48 NE3       30.10S
ORANGE CITY    PTCLDY    45  21  39 N3        30.09F
SHELDON        CLEAR     36  27  69 N3        30.09S
SIOUX CITY     CLOUDY    48  21  34 E3        30.10R
SPENCER        CLEAR     32  23  69 W5        30.10S WCI  27
STORM LAKE     PTCLDY    39  27  60 N5        30.10S
$$

ABBREVIATIONS USED IN REMARKS
   TC - TEMPERATURE IN CELSIUS
  WCI - WIND CHILL INDEX
   HX - HEAT INDEX
  VSB - VISIBILITY



USA.gov is the U.S. government's official web portal to all federal, state and local government web resources and services.